Helicity
21 44 64 65 57 52 49 41 35 34 30 38 26 33 20 24 39 44 52 44 33 26 10 1 10 11 8 11 13 20 54 66
8 27 18 -12 -6 13 14 17 19 8 23 25 14 19 7 4 36 33 23 21 18 -1 -7 -8 -2 6 3 2 25 64 64 68
2 24 2 -12 -43 -25 -8 -5 -5 -18 0 6 -7 12 14 17 41 42 19 26 13 1 11 -4 -6 -3 -8 -12 -16 10 14 45
53 41 19 -11 -21 -12 -35 -33 -33 -37 -31 3 -12 -7 12 32 56 64 37 52 30 10 20 29 34 48 15 -1 6 -10 -10 10
96 48 49 26 31 -5 -18 -40 -35 -21 -9 21 22 29 44 56 62 37 48 34 40 39 43 69 63 84 62 42 18 2 -12 -11
146 113 84 30 32 14 15 16 35 49 41 69 64 62 56 67 43 28 25 33 47 48 48 45 55 67 95 82 74 54 45 39
201 114 93 57 67 62 79 80 75 71 112 104 101 92 64 43 22 18 15 30 44 58 56 55 66 72 90 91 99 90 78 76
293 116 45 54 93 78 72 86 71 100 89 84 96 85 58 53 43 47 46 47 47 58 58 55 73 97 117 126 139 156 152 136
473 142 17 58 74 84 116 83 95 74 78 87 94 108 83 91 104 70 63 64 65 60 53 61 80 103 100 114 134 136 172 202
479 125 101 79 49 80 120 139 73 96 111 142 192 255 199 172 155 120 122 120 100 98 77 62 78 100 99 96 89 93 114 150
233 166 34 38 96 91 138 114 85 100 158 221 246 258 238 252 223 205 161 113 95 108 128 101 88 71 61 61 74 83 88 89
122 52 66 39 81 165 213 218 242 281 340 388 382 329 315 217 188 186 149 124 117 80 84 82 55 77 106 112 122 112 105 82
164 46 45 67 167 299 302 328 325 445 415 293 235 218 151 186 151 161 178 155 91 71 56 73 91 74 53 66 54 99 107 96
301 294 361 372 365 343 331 298 276 183 100 141 190 184 211 230 253 240 196 157 123 75 79 68 66 81 73 90 112 86 77 112
181 167 201 233 234 212 229 214 173 166 143 110 111 200 237 259 233 221 206 179 144 113 89 101 99 88 153 128 172 177 113 109
53 58 88 103 119 163 140 132 122 72 73 133 217 248 271 239 215 199 164 134 139 118 146 138 125 110 88 159 134 88 108 78
54 56 83 92 61 43 48 33 63 128 216 264 240 259 226 184 156 137 154 120 124 125 116 123 127 145 155 151 146 145 135 131
24 58 32 31 67 128 143 186 275 296 245 223 210 164 156 175 214 174 166 151 159 160 144 147 127 145 164 144 131 131 125 122
16 67 89 116 115 226 335 356 369 344 296 243 202 192 179 188 130 128 94 127 169 202 222 241 235 219 173 159 106 92 117 107
162 159 147 229 246 273 307 324 290 301 332 162 218 220 179 164 116 100 133 146 156 150 136 158 167 150 164 127 92 105 104 102
Wind_Speed
35 33 34 34 35 35 35 35 36 36 36 36 37 38 40 40 40 42 44 46 49 53 56 58 59 59 59 60 59 55 48 46
36 35 35 36 36 36 35 35 35 35 35 34 34 36 36 36 39 43 43 45 49 49 53 55 55 55 60 61 61 58 54 51
33 32 32 34 37 35 35 35 34 33 33 32 31 34 32 33 36 39 42 43 45 46 47 48 52 54 61 60 57 57 57 47
30 28 27 29 32 33 34 34 32 32 32 34 31 31 28 31 34 36 41 40 40 42 43 45 46 49 56 59 55 55 55 53
23 24 26 25 28 29 28 29 30 28 30 38 39 41 40 39 37 39 42 42 41 42 44 46 46 45 55 54 55 59 57 53
23 24 24 27 29 26 24 27 30 28 31 37 39 40 42 44 44 45 46 46 43 44 48 54 52 50 46 49 50 52 54 53
18 22 24 23 27 27 27 28 29 30 32 35 39 40 42 43 45 49 52 54 52 51 57 62 56 56 56 55 49 47 47 48
22 22 22 22 22 24 26 27 31 32 30 34 36 39 40 44 50 54 57 58 55 57 63 66 61 60 56 53 51 47 48 49
22 16 19 22 21 24 22 26 31 31 30 31 32 35 37 45 52 57 59 60 63 68 72 71 72 69 68 65 62 60 57 54
18 15 13 11 19 23 21 28 31 38 39 35 41 45 46 48 54 61 66 70 72 72 76 77 78 76 76 76 74 73 73 70
9 15 12 16 19 21 25 27 31 35 36 40 43 45 51 56 62 69 72 74 77 77 78 77 82 86 85 85 84 83 81 77
20 21 14 15 20 25 34 35 39 40 43 46 46 50 54 60 68 76 71 79 78 80 83 82 83 88 88 87 84 83 79 81
23 22 23 18 23 32 38 37 38 42 44 45 50 53 58 76 73 72 70 70 71 73 75 83 84 81 85 92 88 86 85 87
30 32 37 35 34 37 39 39 41 43 45 48 58 66 71 69 69 69 69 72 77 79 82 83 79 82 86 91 100 95 84 86
36 38 39 38 39 42 46 47 50 54 59 66 71 66 65 66 68 71 73 75 80 82 82 84 89 83 76 80 96 102 101 82
38 39 41 42 46 50 51 52 56 58 62 62 65 68 70 69 73 75 76 80 83 83 81 79 78 86 77 73 71 77 95 112
45 43 45 47 48 47 49 53 56 57 62 62 68 72 73 75 79 83 86 83 82 79 77 77 76 78 81 81 81 82 81 95
43 47 53 53 52 50 53 57 60 59 64 70 74 74 77 82 82 82 81 79 75 76 75 74 74 74 74 76 82 87 88 85
43 48 55 57 53 53 55 57 59 63 70 74 77 78 77 77 78 79 78 79 79 79 78 78 77 79 80 82 76 78 76 81
48 52 56 62 59 58 61 65 68 69 76 74 74 72 72 77 78 80 83 81 79 80 83 84 83 85 83 80 79 80 74 69
Wind_Direction
76 62 62 59 61 58 56 54 51 45 48 46 48 44 37 39 33 24 17 10 3 355 350 344 341 337 333 332 334 339 344 346
80 75 68 64 60 61 56 52 53 58 58 54 51 47 43 37 30 22 20 15 8 6 360 354 351 349 339 331 327 328 333 337
83 76 72 63 57 56 59 61 62 57 59 58 52 42 43 37 28 23 18 16 13 11 9 4 357 353 344 339 335 331 329 340
76 69 72 63 57 61 65 65 62 59 57 44 42 35 35 33 24 21 15 14 13 11 9 6 5 359 352 346 343 337 334 334
64 51 59 64 60 66 69 70 63 64 51 30 28 20 26 23 23 16 11 9 7 5 3 1 359 358 350 351 347 338 334 331
77 65 58 48 51 62 60 55 42 51 38 31 24 21 18 15 13 10 5 2 2 360 358 354 351 351 353 351 350 346 341 337
76 64 64 54 49 50 45 36 38 31 31 25 19 14 10 8 5 1 357 354 353 352 347 343 343 341 339 338 340 341 341 339
28 16 39 62 65 40 32 33 24 20 24 16 17 10 6 5 358 355 350 349 349 344 339 337 337 336 335 334 333 332 331 330
69 311 45 21 65 29 22 20 14 10 10 8 8 6 3 360 355 352 349 346 341 335 330 331 329 328 327 325 323 323 322 319
78 93 16 37 36 33 29 17 11 1 0 359 0 359 359 358 352 348 343 337 335 332 328 326 325 325 323 322 322 321 318 317
63 21 80 38 29 38 27 10 5 0 7 7 3 2 357 352 347 344 339 335 332 331 329 328 324 321 319 317 316 314 315 316
54 55 57 41 18 17 4 2 6 8 2 359 359 354 351 346 339 335 335 331 330 328 325 325 324 322 319 316 315 313 313 313
40 30 12 10 4 355 353 357 357 359 359 358 352 347 342 335 333 334 337 335 334 332 329 326 324 325 320 316 314 312 311 310
19 14 8 6 359 357 354 351 350 348 346 347 345 340 337 338 337 336 337 333 330 329 327 324 322 324 319 315 311 309 310 311
5 4 4 1 355 350 346 343 341 340 338 335 336 342 345 343 341 338 335 333 329 327 326 323 319 320 322 316 310 306 310 310
4 360 356 354 347 344 342 340 337 337 336 339 340 342 341 340 338 335 333 330 327 326 325 323 321 317 318 318 316 312 309 305
353 353 352 347 346 346 344 340 339 340 340 341 340 339 339 338 336 333 329 327 326 326 325 323 321 319 317 315 313 312 310 306
354 353 352 351 346 344 341 339 341 342 339 336 335 335 336 335 334 334 334 333 332 329 327 324 322 320 317 315 313 311 309 308
355 351 348 349 354 351 349 346 344 341 339 336 335 335 335 337 337 336 335 333 331 330 328 327 325 321 318 316 315 313 311 309
355 350 347 347 349 348 346 342 338 336 337 334 336 338 338 337 337 335 333 332 331 329 326 324 322 319 317 315 314 313 311 310